Data No,UTC Date,UTC Time,Latitude,Longitude,Course(deg),Temp(degC),Sal(psu)
496,2023/11/11,8:15,42-36.98N,141-37.14E,212,13.065,32.4291
497,2023/11/11,8:16,42-36.75N,141-36.94E,211,13.017,32.4778
498,2023/11/11,8:17,42-36.50N,141-36.87E,186,13.203,32.4894
499,2023/11/11,8:18,42-36.22N,141-36.90E,176,13.236,32.6572
500,2023/11/11,8:19,42-35.93N,141-36.93E,174,13.281,32.8738
501,2023/11/11,8:20,42-35.66N,141-36.96E,175,13.439,33.0769
502,2023/11/11,8:21,42-35.37N,141-36.99E,175,13.541,33.1683
503,2023/11/11,8:22,42-35.07N,141-37.03E,174,13.537,33.2172
504,2023/11/11,8:23,42-34.79N,141-37.06E,175,13.527,33.2277
505,2023/11/11,8:24,42-34.51N,141-37.09E,174,13.498,33.2282
506,2023/11/11,8:25,42-34.21N,141-37.13E,174,13.476,33.2356
507,2023/11/11,8:26,42-33.93N,141-37.17E,174,13.448,33.1915
508,2023/11/11,8:27,42-33.65N,141-37.21E,173,13.447,33.1607
509,2023/11/11,8:28,42-33.35N,141-37.25E,174,13.467,33.1824
510,2023/11/11,8:29,42-33.07N,141-37.28E,174,13.483,33.2006
511,2023/11/11,8:30,42-32.79N,141-37.32E,175,13.471,33.2221
512,2023/11/11,8:31,42-32.49N,141-37.35E,174,13.432,33.2283
513,2023/11/11,8:32,42-32.21N,141-37.38E,174,13.387,33.1924
514,2023/11/11,8:33,42-31.92N,141-37.42E,175,13.373,33.1975
515,2023/11/11,8:34,42-31.62N,141-37.45E,175,13.404,33.1913
516,2023/11/11,8:35,42-31.34N,141-37.48E,175,13.381,33.2151
517,2023/11/11,8:36,42-31.05N,141-37.51E,176,13.354,33.214
518,2023/11/11,8:37,42-30.76N,141-37.53E,175,13.333,33.203
519,2023/11/11,8:38,42-30.47N,141-37.55E,177,13.334,33.2009
520,2023/11/11,8:39,42-30.18N,141-37.56E,178,13.338,33.2112
521,2023/11/11,8:40,42-29.89N,141-37.57E,179,13.32,33.2233
522,2023/11/11,8:41,42-29.60N,141-37.57E,179,13.262,33.2221
523,2023/11/11,8:42,42-29.31N,141-37.58E,179,13.4,33.2119
524,2023/11/11,8:43,42-29.01N,141-37.58E,179,13.574,33.2666
525,2023/11/11,8:44,42-28.74N,141-37.58E,180,13.593,33.3876
526,2023/11/11,8:45,42-28.46N,141-37.57E,180,13.59,33.4245
527,2023/11/11,8:46,42-28.16N,141-37.57E,180,13.594,33.4417
528,2023/11/11,8:47,42-27.88N,141-37.56E,181,13.62,33.456
529,2023/11/11,8:48,42-27.60N,141-37.55E,180,13.668,33.4721
530,2023/11/11,8:49,42-27.31N,141-37.55E,181,13.764,33.484
531,2023/11/11,8:50,42-27.04N,141-37.54E,181,13.837,33.5031
532,2023/11/11,8:51,42-26.76N,141-37.51E,183,13.962,33.5158
533,2023/11/11,8:52,42-26.51N,141-37.49E,183,14.036,33.5447
534,2023/11/11,8:53,42-26.22N,141-37.47E,183,14.064,33.5659
535,2023/11/11,8:54,42-25.94N,141-37.44E,183,14.089,33.5797
536,2023/11/11,8:55,42-25.65N,141-37.42E,183,14.1,33.5861
537,2023/11/11,8:56,42-25.38N,141-37.39E,183,14.107,33.5892
538,2023/11/11,8:57,42-25.09N,141-37.37E,183,14.109,33.593
539,2023/11/11,8:58,42-24.82N,141-37.34E,184,14.107,33.5944
540,2023/11/11,8:59,42-24.53N,141-37.31E,184,14.116,33.5923
541,2023/11/11,9:00,42-24.25N,141-37.28E,183,14.148,33.5882
542,2023/11/11,9:01,42-23.96N,141-37.25E,184,14.14,33.5828
543,2023/11/11,9:02,42-23.68N,141-37.22E,184,14.13,33.576
544,2023/11/11,9:03,42-23.40N,141-37.19E,183,14.124,33.5697
545,2023/11/11,9:04,42-23.11N,141-37.16E,184,14.142,33.5656
546,2023/11/11,9:05,42-22.83N,141-37.13E,184,14.138,33.5707
547,2023/11/11,9:06,42-22.55N,141-37.10E,183,14.123,33.5723
548,2023/11/11,9:07,42-22.27N,141-37.07E,184,14.131,33.574
549,2023/11/11,9:08,42-21.99N,141-37.04E,184,14.14,33.5743
550,2023/11/11,9:09,42-21.70N,141-37.01E,184,14.159,33.5759
551,2023/11/11,9:10,42-21.43N,141-36.98E,184,14.152,33.5787
552,2023/11/11,9:11,42-21.15N,141-36.96E,184,14.103,33.5771
553,2023/11/11,9:12,42-20.86N,141-36.93E,184,14.037,33.5688
554,2023/11/11,9:13,42-20.60N,141-36.90E,184,13.959,33.5598
555,2023/11/11,9:14,42-20.31N,141-36.87E,183,13.874,33.5437
556,2023/11/11,9:15,42-20.04N,141-36.84E,184,13.735,33.5263
557,2023/11/11,9:16,42-19.75N,141-36.81E,184,13.667,33.504
558,2023/11/11,9:17,42-19.47N,141-36.78E,184,13.649,33.4914
559,2023/11/11,9:18,42-19.20N,141-36.75E,184,13.639,33.4855
560,2023/11/11,9:19,42-18.92N,141-36.72E,184,13.638,33.4828
561,2023/11/11,9:20,42-18.64N,141-36.69E,184,13.646,33.4828
562,2023/11/11,9:21,42-18.37N,141-36.67E,184,13.648,33.4808
563,2023/11/11,9:22,42-18.09N,141-36.64E,183,13.662,33.4758
564,2023/11/11,9:23,42-17.82N,141-36.62E,183,13.756,33.4705
565,2023/11/11,9:24,42-17.53N,141-36.59E,183,13.908,33.4758
566,2023/11/11,9:25,42-17.26N,141-36.57E,183,14.018,33.492
567,2023/11/11,9:26,42-16.97N,141-36.54E,184,14.08,33.5027
568,2023/11/11,9:27,42-16.70N,141-36.52E,182,14.108,33.5101
569,2023/11/11,9:28,42-16.42N,141-36.51E,181,14.109,33.5132
570,2023/11/11,9:29,42-16.13N,141-36.49E,182,14.091,33.5142
571,2023/11/11,9:30,42-15.86N,141-36.48E,181,14.041,33.5129
572,2023/11/11,9:31,42-15.57N,141-36.47E,181,13.985,33.506
573,2023/11/11,9:32,42-15.28N,141-36.46E,181,13.912,33.5001
574,2023/11/11,9:33,42-15.01N,141-36.45E,181,13.86,33.4917
575,2023/11/11,9:34,42-14.73N,141-36.44E,181,13.774,33.4879
576,2023/11/11,9:35,42-14.45N,141-36.43E,181,13.667,33.4764
577,2023/11/11,9:36,42-14.17N,141-36.42E,182,13.573,33.4601
578,2023/11/11,9:37,42-13.89N,141-36.41E,182,13.457,33.4476
579,2023/11/11,9:38,42-13.59N,141-36.40E,181,13.361,33.4333
580,2023/11/11,9:39,42-13.32N,141-36.39E,181,13.303,33.4177
581,2023/11/11,9:40,42-13.05N,141-36.38E,180,13.251,33.4119
582,2023/11/11,9:41,42-12.77N,141-36.38E,180,13.194,33.4085
583,2023/11/11,9:42,42-12.49N,141-36.37E,181,13.188,33.408
584,2023/11/11,9:43,42-12.21N,141-36.37E,181,13.187,33.4112
585,2023/11/11,9:44,42-11.93N,141-36.36E,181,13.229,33.4163
586,2023/11/11,9:45,42-11.65N,141-36.35E,181,13.263,33.4252
587,2023/11/11,9:46,42-11.38N,141-36.34E,180,13.303,33.4343
588,2023/11/11,9:47,42-11.09N,141-36.34E,180,13.358,33.4452
589,2023/11/11,9:48,42-10.82N,141-36.33E,182,13.417,33.4572
590,2023/11/11,9:49,42-10.53N,141-36.32E,181,13.472,33.4689
591,2023/11/11,9:50,42-10.26N,141-36.31E,181,13.463,33.4777
592,2023/11/11,9:51,42-09.98N,141-36.30E,181,13.507,33.4785
593,2023/11/11,9:52,42-09.70N,141-36.30E,180,13.542,33.4852
594,2023/11/11,9:53,42-09.42N,141-36.29E,180,13.621,33.4835
595,2023/11/11,9:54,42-09.14N,141-36.29E,180,13.68,33.5032
596,2023/11/11,9:55,42-08.86N,141-36.28E,180,13.74,33.5116
597,2023/11/11,9:56,42-08.58N,141-36.28E,181,13.808,33.5228
598,2023/11/11,9:57,42-08.29N,141-36.27E,180,13.908,33.5309
599,2023/11/11,9:58,42-08.02N,141-36.26E,181,14,33.5446
600,2023/11/11,9:59,42-07.74N,141-36.25E,180,14.083,33.5643
601,2023/11/11,10:00,42-07.45N,141-36.25E,181,14.123,33.5747
602,2023/11/11,10:01,42-07.18N,141-36.24E,181,14.157,33.5828
603,2023/11/11,10:02,42-06.90N,141-36.23E,181,14.169,33.5894
604,2023/11/11,10:03,42-06.62N,141-36.22E,181,14.167,33.5942
605,2023/11/11,10:04,42-06.34N,141-36.22E,180,14.151,33.596
606,2023/11/11,10:05,42-06.07N,141-36.21E,181,14.127,33.5941
607,2023/11/11,10:06,42-05.79N,141-36.20E,181,14.096,33.5912
608,2023/11/11,10:07,42-05.51N,141-36.20E,180,14.047,33.5864
609,2023/11/11,10:08,42-05.24N,141-36.19E,181,14.008,33.578
610,2023/11/11,10:09,42-04.95N,141-36.18E,180,13.966,33.5708
611,2023/11/11,10:10,42-04.68N,141-36.18E,181,13.934,33.5663
612,2023/11/11,10:11,42-04.41N,141-36.17E,180,13.896,33.5605
613,2023/11/11,10:12,42-04.12N,141-36.16E,180,13.864,33.5554
614,2023/11/11,10:13,42-03.85N,141-36.16E,181,13.845,33.5497
615,2023/11/11,10:14,42-03.57N,141-36.16E,179,13.826,33.5485
616,2023/11/11,10:15,42-03.29N,141-36.15E,179,13.782,33.549
617,2023/11/11,10:16,42-03.02N,141-36.15E,181,13.748,33.5456
618,2023/11/11,10:17,42-02.74N,141-36.15E,180,13.712,33.5433
619,2023/11/11,10:18,42-02.47N,141-36.14E,180,13.69,33.5428
620,2023/11/11,10:19,42-02.18N,141-36.15E,179,13.667,33.5349
621,2023/11/11,10:20,42-01.92N,141-36.15E,178,13.656,33.5327
622,2023/11/11,10:21,42-01.64N,141-36.15E,179,13.649,33.5289
623,2023/11/11,10:22,42-01.36N,141-36.15E,179,13.633,33.5247
624,2023/11/11,10:23,42-01.09N,141-36.16E,179,13.619,33.517
625,2023/11/11,10:24,42-00.81N,141-36.16E,179,13.606,33.513
626,2023/11/11,10:25,42-00.52N,141-36.17E,178,13.597,33.5068
627,2023/11/11,10:26,42-00.26N,141-36.18E,178,13.594,33.5004
628,2023/11/11,10:27,41-59.98N,141-36.18E,178,13.595,33.4986
629,2023/11/11,10:28,41-59.70N,141-36.19E,177,13.599,33.4991
630,2023/11/11,10:29,41-59.43N,141-36.21E,179,13.613,33.4987
631,2023/11/11,10:30,41-59.16N,141-36.21E,179,13.624,33.5023
632,2023/11/11,10:31,41-58.87N,141-36.22E,178,13.629,33.5063
633,2023/11/11,10:32,41-58.58N,141-36.23E,178,13.645,33.5092
634,2023/11/11,10:33,41-58.32N,141-36.24E,178,13.659,33.514
635,2023/11/11,10:34,41-58.04N,141-36.25E,178,13.665,33.5203
636,2023/11/11,10:35,41-57.77N,141-36.26E,177,13.671,33.5241
637,2023/11/11,10:36,41-57.49N,141-36.27E,178,13.674,33.5259
638,2023/11/11,10:37,41-57.21N,141-36.29E,178,13.69,33.5292
639,2023/11/11,10:38,41-56.94N,141-36.29E,178,13.692,33.538
640,2023/11/11,10:39,41-56.66N,141-36.30E,178,13.697,33.5383
641,2023/11/11,10:40,41-56.37N,141-36.32E,177,13.695,33.5436
642,2023/11/11,10:41,41-56.09N,141-36.33E,178,13.696,33.5432
643,2023/11/11,10:42,41-55.82N,141-36.34E,178,13.706,33.5438
644,2023/11/11,10:43,41-55.55N,141-36.34E,179,13.725,33.5468
645,2023/11/11,10:44,41-55.26N,141-36.35E,178,13.739,33.552
646,2023/11/11,10:45,41-54.99N,141-36.35E,179,13.757,33.5568
647,2023/11/11,10:46,41-54.71N,141-36.36E,177,13.802,33.5621
648,2023/11/11,10:47,41-54.42N,141-36.38E,178,13.816,33.5702
649,2023/11/11,10:48,41-54.15N,141-36.39E,178,13.844,33.5727
650,2023/11/11,10:49,41-53.87N,141-36.39E,179,13.88,33.5791
651,2023/11/11,10:50,41-53.59N,141-36.40E,178,13.922,33.59
652,2023/11/11,10:51,41-53.30N,141-36.41E,178,13.981,33.602
653,2023/11/11,10:52,41-53.02N,141-36.42E,178,14.082,33.621
654,2023/11/11,10:53,41-52.74N,141-36.42E,179,14.172,33.6503
655,2023/11/11,10:54,41-52.47N,141-36.43E,179,14.333,33.6739
656,2023/11/11,10:55,41-52.19N,141-36.44E,179,14.395,33.7195
657,2023/11/11,10:56,41-51.91N,141-36.44E,179,14.47,33.7413
658,2023/11/11,10:57,41-51.62N,141-36.45E,179,14.537,33.7654
659,2023/11/11,10:58,41-51.35N,141-36.45E,178,14.566,33.7798
660,2023/11/11,10:59,41-51.07N,141-36.46E,179,14.593,33.7831
661,2023/11/11,11:00,41-50.78N,141-36.46E,179,14.617,33.7859
662,2023/11/11,11:01,41-50.51N,141-36.47E,179,14.682,33.7851
663,2023/11/11,11:02,41-50.22N,141-36.47E,179,14.802,33.7901
664,2023/11/11,11:03,41-49.93N,141-36.48E,179,14.889,33.794
665,2023/11/11,11:04,41-49.65N,141-36.48E,179,14.947,33.7896
666,2023/11/11,11:05,41-49.38N,141-36.48E,179,14.987,33.782
667,2023/11/11,11:06,41-49.10N,141-36.48E,179,15.001,33.7774
668,2023/11/11,11:07,41-48.82N,141-36.48E,181,15.012,33.7779
669,2023/11/11,11:08,41-48.54N,141-36.47E,180,14.996,33.7775
670,2023/11/11,11:09,41-48.26N,141-36.47E,180,14.972,33.7702
671,2023/11/11,11:10,41-47.97N,141-36.47E,180,14.96,33.7641
672,2023/11/11,11:11,41-47.69N,141-36.46E,181,14.931,33.758
673,2023/11/11,11:12,41-47.41N,141-36.46E,180,14.914,33.7503
674,2023/11/11,11:13,41-47.13N,141-36.45E,180,14.952,33.7333
675,2023/11/11,11:14,41-46.85N,141-36.45E,181,15.007,33.7274
676,2023/11/11,11:15,41-46.56N,141-36.43E,181,15.01,33.7303
677,2023/11/11,11:16,41-46.29N,141-36.44E,179,15.003,33.7335
678,2023/11/11,11:17,41-46.00N,141-36.44E,179,14.961,33.7341
679,2023/11/11,11:18,41-45.72N,141-36.45E,178,14.958,33.7052
680,2023/11/11,11:19,41-45.45N,141-36.45E,179,14.966,33.6891
681,2023/11/11,11:20,41-45.16N,141-36.45E,179,14.952,33.6854
682,2023/11/11,11:21,41-44.88N,141-36.46E,179,14.945,33.6855
683,2023/11/11,11:22,41-44.60N,141-36.46E,179,14.936,33.6862
684,2023/11/11,11:23,41-44.33N,141-36.47E,179,14.887,33.6867
685,2023/11/11,11:24,41-44.05N,141-36.47E,179,14.857,33.6776
686,2023/11/11,11:25,41-43.76N,141-36.47E,179,14.842,33.6688
687,2023/11/11,11:26,41-43.49N,141-36.48E,179,14.816,33.6614
688,2023/11/11,11:27,41-43.21N,141-36.48E,179,14.856,33.6443
689,2023/11/11,11:28,41-42.94N,141-36.48E,179,14.856,33.6443
690,2023/11/11,11:29,41-42.62N,141-36.48E,180,14.818,33.6426
691,2023/11/11,11:30,41-42.34N,141-36.49E,179,14.768,33.6281
692,2023/11/11,11:31,41-42.09N,141-36.49E,179,14.742,33.6118
693,2023/11/11,11:32,41-41.78N,141-36.50E,178,14.679,33.6008
694,2023/11/11,11:33,41-41.51N,141-36.51E,178,14.735,33.5875
695,2023/11/11,11:34,41-41.23N,141-36.52E,178,14.899,33.5797
696,2023/11/11,11:35,41-40.95N,141-36.53E,178,15.12,33.586
697,2023/11/11,11:36,41-40.68N,141-36.54E,177,15.427,33.6213
698,2023/11/11,11:37,41-40.39N,141-36.56E,177,15.531,33.6599
699,2023/11/11,11:38,41-40.12N,141-36.57E,177,15.574,33.6541
700,2023/11/11,11:39,41-39.84N,141-36.59E,176,15.521,33.6451
701,2023/11/11,11:40,41-39.56N,141-36.61E,177,15.4,33.6338
702,2023/11/11,11:41,41-39.28N,141-36.64E,175,15.3,33.6191
703,2023/11/11,11:42,41-39.00N,141-36.67E,174,15.358,33.6168
704,2023/11/11,11:43,41-38.72N,141-36.71E,175,15.414,33.622
705,2023/11/11,11:44,41-38.45N,141-36.74E,174,15.45,33.6244
706,2023/11/11,11:45,41-38.17N,141-36.77E,175,15.521,33.6265
707,2023/11/11,11:46,41-37.90N,141-36.81E,175,15.573,33.625
708,2023/11/11,11:47,41-37.61N,141-36.84E,174,15.608,33.624
709,2023/11/11,11:48,41-37.32N,141-36.88E,174,15.628,33.6208
710,2023/11/11,11:49,41-37.03N,141-36.92E,173,15.64,33.6165
711,2023/11/11,11:50,41-36.72N,141-36.97E,172,15.67,33.6108
712,2023/11/11,11:51,41-36.44N,141-37.01E,174,15.689,33.6058
713,2023/11/11,11:52,41-36.14N,141-37.05E,174,15.687,33.6033
714,2023/11/11,11:53,41-35.83N,141-37.09E,174,15.654,33.6003
715,2023/11/11,11:54,41-35.54N,141-37.13E,173,15.595,33.5979
716,2023/11/11,11:55,41-35.24N,141-37.18E,173,15.513,33.597
717,2023/11/11,11:56,41-34.94N,141-37.23E,172,15.321,33.5974
718,2023/11/11,11:57,41-34.63N,141-37.29E,172,15.109,33.5943
719,2023/11/11,11:58,41-34.33N,141-37.34E,172,15.178,33.5744
720,2023/11/11,11:59,41-34.02N,141-37.39E,173,15.244,33.5734
721,2023/11/11,12:00,41-33.71N,141-37.44E,172,15.292,33.5764
722,2023/11/11,12:01,41-33.41N,141-37.49E,173,15.347,33.5797
723,2023/11/11,12:02,41-33.10N,141-37.54E,172,15.431,33.5864
724,2023/11/11,12:03,41-32.74N,141-37.60E,172,15.603,33.6027
725,2023/11/11,12:04,41-32.44N,141-37.66E,171,15.77,33.6242
726,2023/11/11,12:05,41-32.12N,141-37.72E,171,15.874,33.6399
727,2023/11/11,12:06,41-31.84N,141-37.77E,173,15.938,33.6526
728,2023/11/11,12:07,41-31.55N,141-37.81E,173,15.877,33.6707
729,2023/11/11,12:08,41-31.24N,141-37.86E,173,15.955,33.6956
730,2023/11/11,12:09,41-30.92N,141-37.89E,176,15.695,33.6978
731,2023/11/11,12:10,41-30.62N,141-37.94E,171,15.637,33.7289
732,2023/11/11,12:11,41-30.33N,141-37.98E,175,15.816,33.7593
733,2023/11/11,12:12,41-30.03N,141-38.02E,171,15.873,33.7651
734,2023/11/11,12:13,41-29.74N,141-38.07E,174,16.126,33.776
735,2023/11/11,12:14,41-29.45N,141-38.11E,174,16.279,33.7796
736,2023/11/11,12:15,41-29.16N,141-38.15E,175,16.438,33.7715
737,2023/11/11,12:16,41-28.84N,141-38.18E,175,16.775,33.7637
738,2023/11/11,12:17,41-28.56N,141-38.21E,174,16.871,33.7511
739,2023/11/11,12:18,41-28.30N,141-38.24E,175,16.962,33.7315
740,2023/11/11,12:19,41-28.03N,141-38.27E,175,17.086,33.7223
741,2023/11/11,12:20,41-27.74N,141-38.30E,175,17.143,33.7128
742,2023/11/11,12:21,41-27.46N,141-38.33E,176,17.151,33.7035
743,2023/11/11,12:22,41-27.17N,141-38.35E,176,17.168,33.6963
744,2023/11/11,12:23,41-26.88N,141-38.38E,176,17.2,33.6936
745,2023/11/11,12:24,41-26.60N,141-38.40E,177,17.224,33.6926
746,2023/11/11,12:25,41-26.30N,141-38.42E,177,17.278,33.6875
747,2023/11/11,12:26,41-26.01N,141-38.44E,177,17.305,33.6853
748,2023/11/11,12:27,41-25.71N,141-38.46E,177,17.345,33.6852
749,2023/11/11,12:28,41-25.40N,141-38.48E,177,17.353,33.6803
750,2023/11/11,12:29,41-25.11N,141-38.49E,178,17.366,33.6817
751,2023/11/11,12:30,41-24.81N,141-38.50E,177,17.371,33.6804
752,2023/11/11,12:31,41-24.50N,141-38.52E,178,17.351,33.6805
753,2023/11/11,12:32,41-24.22N,141-38.53E,179,17.319,33.6815
754,2023/11/11,12:33,41-23.92N,141-38.53E,179,17.195,33.6848
755,2023/11/11,12:34,41-23.63N,141-38.54E,179,17.197,33.6794
756,2023/11/11,12:35,41-23.34N,141-38.54E,179,17.271,33.6797
757,2023/11/11,12:36,41-23.06N,141-38.55E,179,17.306,33.6862
758,2023/11/11,12:37,41-22.77N,141-38.55E,179,17.37,33.6904
759,2023/11/11,12:38,41-22.48N,141-38.56E,179,17.384,33.6959
760,2023/11/11,12:39,41-22.19N,141-38.56E,179,17.389,33.6977
761,2023/11/11,12:40,41-21.90N,141-38.57E,179,17.394,33.7006
762,2023/11/11,12:41,41-21.60N,141-38.57E,179,17.396,33.7023
763,2023/11/11,12:42,41-21.32N,141-38.58E,177,17.389,33.7047
764,2023/11/11,12:43,41-21.03N,141-38.60E,175,17.377,33.7052
765,2023/11/11,12:44,41-20.74N,141-38.64E,175,17.367,33.7067
766,2023/11/11,12:45,41-20.45N,141-38.67E,174,17.358,33.7107
767,2023/11/11,12:46,41-20.16N,141-38.72E,173,17.343,33.7151
768,2023/11/11,12:47,41-19.87N,141-38.76E,173,17.316,33.7184
769,2023/11/11,12:48,41-19.56N,141-38.81E,174,17.28,33.7226
770,2023/11/11,12:49,41-19.27N,141-38.85E,173,17.092,33.7252
771,2023/11/11,12:50,41-18.97N,141-38.91E,171,16.984,33.7381
772,2023/11/11,12:51,41-18.69N,141-38.97E,170,16.957,33.7578
773,2023/11/11,12:52,41-18.41N,141-39.03E,170,16.97,33.771
774,2023/11/11,12:53,41-18.12N,141-39.10E,170,17.01,33.7723
775,2023/11/11,12:54,41-17.85N,141-39.15E,171,17.023,33.7685
776,2023/11/11,12:55,41-17.56N,141-39.21E,171,17.005,33.7673
777,2023/11/11,12:56,41-17.28N,141-39.28E,169,17.007,33.7653
778,2023/11/11,12:57,41-17.01N,141-39.35E,169,17.001,33.7686
779,2023/11/11,12:58,41-16.73N,141-39.41E,169,17.012,33.7657
780,2023/11/11,12:59,41-16.46N,141-39.49E,168,17.016,33.7609
781,2023/11/11,13:00,41-16.18N,141-39.56E,168,17.007,33.7554
782,2023/11/11,13:01,41-15.91N,141-39.64E,168,16.991,33.7526
783,2023/11/11,13:02,41-15.63N,141-39.71E,169,16.965,33.7529
784,2023/11/11,13:03,41-15.35N,141-39.79E,168,16.922,33.7549
785,2023/11/11,13:04,41-15.07N,141-39.87E,167,16.877,33.7573
786,2023/11/11,13:05,41-14.80N,141-39.95E,168,16.843,33.7612
787,2023/11/11,13:06,41-14.53N,141-40.02E,168,16.87,33.7665
788,2023/11/11,13:07,41-14.25N,141-40.10E,168,16.908,33.7764
789,2023/11/11,13:08,41-13.97N,141-40.18E,168,16.907,33.7847
790,2023/11/11,13:09,41-13.70N,141-40.25E,168,16.897,33.7849
791,2023/11/11,13:10,41-13.43N,141-40.32E,168,16.885,33.7867
792,2023/11/11,13:11,41-13.16N,141-40.40E,168,16.864,33.7885
793,2023/11/11,13:12,41-12.89N,141-40.47E,168,16.826,33.7873
794,2023/11/11,13:13,41-12.61N,141-40.55E,169,16.849,33.7866
795,2023/11/11,13:14,41-12.33N,141-40.62E,169,16.865,33.7898
796,2023/11/11,13:15,41-12.06N,141-40.69E,168,16.877,33.7916
797,2023/11/11,13:16,41-11.79N,141-40.76E,168,16.877,33.795
798,2023/11/11,13:17,41-11.51N,141-40.83E,168,16.867,33.7985
799,2023/11/11,13:18,41-11.24N,141-40.91E,168,16.87,33.8021
800,2023/11/11,13:19,41-10.97N,141-40.98E,168,16.862,33.805
801,2023/11/11,13:20,41-10.68N,141-41.06E,168,16.847,33.8057
802,2023/11/11,13:21,41-10.41N,141-41.13E,169,16.879,33.8085
803,2023/11/11,13:22,41-10.15N,141-41.20E,169,16.898,33.8116
804,2023/11/11,13:23,41-09.87N,141-41.26E,169,16.901,33.8122
805,2023/11/11,13:24,41-09.60N,141-41.33E,169,16.9,33.8133
806,2023/11/11,13:25,41-09.33N,141-41.40E,169,16.883,33.8131
807,2023/11/11,13:26,41-09.06N,141-41.47E,169,16.858,33.8132
808,2023/11/11,13:27,41-08.77N,141-41.54E,169,16.839,33.807
809,2023/11/11,13:28,41-08.51N,141-41.60E,169,16.839,33.8011
810,2023/11/11,13:29,41-08.23N,141-41.67E,170,16.831,33.7985
811,2023/11/11,13:30,41-07.95N,141-41.73E,170,16.821,33.7959
812,2023/11/11,13:31,41-07.69N,141-41.80E,170,16.817,33.7943
813,2023/11/11,13:32,41-07.42N,141-41.86E,170,16.799,33.7889
814,2023/11/11,13:33,41-07.13N,141-41.92E,170,16.803,33.7862
815,2023/11/11,13:34,41-06.87N,141-41.98E,170,16.796,33.7821
816,2023/11/11,13:35,41-06.59N,141-42.04E,171,16.784,33.7775
817,2023/11/11,13:36,41-06.33N,141-42.11E,168,16.775,33.7727
818,2023/11/11,13:37,41-06.06N,141-42.18E,167,16.762,33.7687
819,2023/11/11,13:38,41-05.78N,141-42.26E,167,16.761,33.7676
820,2023/11/11,13:39,41-05.51N,141-42.35E,167,16.759,33.7668
821,2023/11/11,13:40,41-05.24N,141-42.43E,167,16.77,33.7698
822,2023/11/11,13:41,41-04.98N,141-42.50E,167,16.771,33.7705
823,2023/11/11,13:42,41-04.72N,141-42.58E,167,16.771,33.7724
824,2023/11/11,13:43,41-04.44N,141-42.66E,167,16.789,33.7691
825,2023/11/11,13:44,41-04.19N,141-42.73E,167,16.783,33.7697
826,2023/11/11,13:45,41-03.91N,141-42.81E,168,16.794,33.7704
827,2023/11/11,13:46,41-03.64N,141-42.88E,168,16.798,33.772
828,2023/11/11,13:47,41-03.38N,141-42.95E,168,16.792,33.7751
829,2023/11/11,13:48,41-03.11N,141-43.03E,167,16.804,33.7777
830,2023/11/11,13:49,41-02.84N,141-43.10E,168,16.825,33.782
831,2023/11/11,13:50,41-02.57N,141-43.18E,167,16.842,33.7825
832,2023/11/11,13:51,41-02.33N,141-43.25E,169,16.857,33.7821
833,2023/11/11,13:52,41-02.06N,141-43.31E,169,16.869,33.7812
834,2023/11/11,13:53,41-01.80N,141-43.39E,168,16.881,33.7832
835,2023/11/11,13:54,41-01.54N,141-43.46E,167,16.898,33.7849
836,2023/11/11,13:55,41-01.28N,141-43.53E,168,16.906,33.7849
837,2023/11/11,13:56,41-01.01N,141-43.60E,168,16.924,33.7808
838,2023/11/11,13:57,41-00.75N,141-43.67E,169,16.938,33.7757
839,2023/11/11,13:58,41-00.48N,141-43.73E,169,16.946,33.7724
840,2023/11/11,13:59,41-00.23N,141-43.80E,169,16.943,33.7725
841,2023/11/11,14:00,40-59.97N,141-43.86E,169,16.953,33.7742
842,2023/11/11,14:01,40-59.69N,141-43.93E,169,16.953,33.7727
843,2023/11/11,14:02,40-59.44N,141-43.99E,170,16.95,33.7722
844,2023/11/11,14:03,40-59.18N,141-44.05E,170,16.953,33.771
845,2023/11/11,14:04,40-58.92N,141-44.11E,169,16.958,33.7695
846,2023/11/11,14:05,40-58.66N,141-44.17E,170,16.967,33.7625
847,2023/11/11,14:06,40-58.40N,141-44.24E,168,16.971,33.7497
848,2023/11/11,14:07,40-58.14N,141-44.30E,168,16.974,33.7416
849,2023/11/11,14:08,40-57.88N,141-44.38E,168,16.974,33.7366
850,2023/11/11,14:09,40-57.63N,141-44.45E,168,16.984,33.7342
851,2023/11/11,14:10,40-57.37N,141-44.52E,168,16.995,33.7299
852,2023/11/11,14:11,40-57.11N,141-44.58E,169,16.994,33.7271
853,2023/11/11,14:12,40-56.86N,141-44.65E,169,17.001,33.7264
854,2023/11/11,14:13,40-56.60N,141-44.71E,169,16.994,33.7273
855,2023/11/11,14:14,40-56.35N,141-44.77E,169,16.989,33.7268
856,2023/11/11,14:15,40-56.09N,141-44.84E,168,16.98,33.7299
857,2023/11/11,14:16,40-55.84N,141-44.92E,167,16.969,33.7316
858,2023/11/11,14:17,40-55.59N,141-45.00E,164,16.924,33.7369
859,2023/11/11,14:18,40-55.33N,141-45.10E,164,16.791,33.739
860,2023/11/11,14:19,40-55.08N,141-45.19E,165,16.753,33.7468
861,2023/11/11,14:20,40-54.82N,141-45.28E,164,16.737,33.7565
862,2023/11/11,14:21,40-54.57N,141-45.37E,164,16.726,33.7634
863,2023/11/11,14:22,40-54.29N,141-45.47E,164,16.721,33.7688
864,2023/11/11,14:23,40-54.02N,141-45.57E,164,16.707,33.7731
865,2023/11/11,14:24,40-53.78N,141-45.66E,164,16.723,33.7753
866,2023/11/11,14:25,40-53.55N,141-45.75E,163,16.74,33.779
867,2023/11/11,14:26,40-53.30N,141-45.85E,163,16.742,33.7798
868,2023/11/11,14:27,40-53.02N,141-45.96E,164,16.743,33.781
869,2023/11/11,14:28,40-52.77N,141-46.05E,163,16.742,33.7815
870,2023/11/11,14:29,40-52.56N,141-46.13E,164,16.753,33.7794
871,2023/11/11,14:30,40-52.31N,141-46.23E,164,16.733,33.7792
872,2023/11/11,14:31,40-52.05N,141-46.32E,164,16.733,33.7801
873,2023/11/11,14:32,40-51.80N,141-46.42E,164,16.746,33.7776
874,2023/11/11,14:33,40-51.55N,141-46.51E,163,16.74,33.7704
875,2023/11/11,14:34,40-51.30N,141-46.60E,164,16.726,33.7623
876,2023/11/11,14:35,40-51.04N,141-46.69E,167,16.715,33.755
877,2023/11/11,14:36,40-50.79N,141-46.76E,167,16.689,33.7497
878,2023/11/11,14:37,40-50.53N,141-46.84E,166,16.666,33.7501
879,2023/11/11,14:38,40-50.26N,141-46.93E,167,16.677,33.7567
880,2023/11/11,14:39,40-50.00N,141-47.00E,167,16.681,33.7589
881,2023/11/11,14:40,40-49.73N,141-47.08E,167,16.686,33.761
882,2023/11/11,14:41,40-49.46N,141-47.16E,167,16.679,33.7612
883,2023/11/11,14:42,40-49.19N,141-47.24E,166,16.669,33.7627
884,2023/11/11,14:43,40-48.91N,141-47.33E,166,16.68,33.7628